Starlink 4530

operational
NORAD ID: 53393 Int'l Des: 2022-097 Owner: SPXS Country: US Constellation: starlink
LEOCIRCULAR

Starlink 4530について

説明を読み込み中...

リアルタイム位置

3D地球を読み込み中...

次回通過

高度履歴

Altitude vs Time

uPlot chart will show altitude changes over time

軌道要素

1 53393U 22097F 25302.42088338 .00000171 00000-0 28856-4 0 9993
2 53393 53.2185 353.4092 0001498 97.7322 262.3840 15.08841866178858
Epoch: Oct 29, 2025 • Age: 17 hours

現在のステータス

高度 539.5 km
速度 7.60 km/s
衛星直下点 17.14°N, 77.9°E
打ち上げ日 Aug 10, 2022
運用期間 3.2 years
タイプ internet

技術仕様

分類 Payload
質量 297.00 kg
乾燥質量 275.00 kg
総質量 297.00 kg
長さ 0.20 m
直径 2.80 m
スパン 9.00 m
形状 Box + pan
製造者 SPXS
バスタイプ Starlink
フェーズステータス In Orbit
所有者/国 SPXS/US

大規模コンステレーション

Loading constellations...